User: anonymous   Login
Location: Bijele Vode
(45.2833°N, 16.2000°E)
Time: 13:47:12
(UTC+00:00)
Language:

Cosmos 2082 Rocket - Orbit

View from above orbital plane
View from above orbital plane
View from above satellite
View from above satellite

Ground track
Ground track

The orbit data is extracted from the following two-line orbital elements,

1 20625U 90046B   21206.83125836  .00000009  00000-0  29508-4 0  9998
2 20625  70.9981 241.5136 0015073 340.5455  19.5090 14.14674826609669
Epoch (UTC): 25 July 2021 19:57:00
Eccentricity: 0.0015073
inclination: 70.9981°
perigee height: 832 km
apogee height: 854 km
right ascension of ascending node: 241.5136°
argument of perigee: 340.5455°
revolutions per day: 14.14674826
mean anomaly at epoch: 19.5090°
orbit number at epoch: 60966

The dashed part of the orbit path shows where the satellite is in the earth's shadow,  

DLR